Weather History for EGXE - December, 2012

Change the Weather History Date:

Thursday, December 6, 2012

  Actual Average (EGNV) Record (EGNV)
Temperature  
Mean Temperature 32 °F -  
Max Temperature 38 °F 44 °F 57 °F (2007)
Min Temperature 26 °F 34 °F 8 °F (2010)
Degree Days  
Heating Degree Days 33    
Moisture  
Dew Point 30 °F    
Average Humidity 87    
Maximum Humidity 100    
Minimum Humidity 74    
Precipitation  
Precipitation 0.02 in 0.07 in - ()
Sea Level Pressure  
Sea Level Pressure 29.66 in    
Wind  
Wind Speed 9 mph ()    
Max Wind Speed 21 mph    
Max Gust Speed -    
Visibility 8.4 miles    
Events Rain    
Averages and records for this station are not official NWS values.
T = Trace of Precipitation, MM = Missing Value Source: Averaged Metar Reports

Daily Weather History Graph

Daily Weather History Graph

Search for Another Location

Airport or City:

Trip Planner

Search our weather history database for the weather conditions in past years. The results will help you decide how hot, cold, wet, or windy it might be!

Date:

Astronomy

Dec. 06, 2012 Rise Set
Actual Time 8:10 AM GMT 3:43 PM GMT
Civil Twilight 7:27 AM GMT 4:26 PM GMT
Nautical Twilight 6:41 AM GMT 5:12 PM GMT
Astronomical Twilight 5:58 AM GMT 5:56 PM GMT
Moon No Moon Rise 12:03 PM GMT (12/6)
Length of Visible Light 8h 59m
Length of Day
7h 32m
Waning Gibbous, 52% of the Moon is Illuminated
Dec 6
Waning Gibbous
Dec 6
Last Quarter
Dec 13
New
Dec 20
First Quarter
Dec 28
Full

Hourly Weather History & Observations

Time (GMT) Temp. Windchill Dew Point Humidity Pressure Visibility Wind Dir Wind Speed Gust Speed Precip Events Conditions
12:50 AM 30.2 °F 21.3 °F 23.0 °F 75% 29.98 in 6.2 mi West 10.4 mph - N/A   Unknown
1:50 AM 30.2 °F 21.3 °F 23.0 °F 75% 29.98 in 6.2 mi West 10.4 mph - N/A   Partly Cloudy
2:50 AM 28 °F - 23 °F 74% 30.00 in 14 mi South 3.5 mph - -   Mostly Cloudy
2:50 AM 28.4 °F 24.6 °F 23.0 °F 80% 29.98 in 6.2 mi South 3.5 mph - N/A   Mostly Cloudy
3:50 AM 28.4 °F 23.3 °F 23.0 °F 80% 29.95 in 6.2 mi South 4.6 mph - N/A   Scattered Clouds
4:50 AM 26.6 °F 20.0 °F 23.0 °F 86% 29.95 in 6.2 mi SSE 5.8 mph - N/A   Scattered Clouds
5:50 AM 28 °F - 26 °F 91% 29.95 in 16 mi SSE 6.9 mph - -   Partly Cloudy
5:50 AM 28.4 °F 21.2 °F 26.6 °F 93% 29.92 in - SSE 6.9 mph - N/A   Clear
6:50 AM 30.2 °F 24.3 °F 24.8 °F 80% 29.92 in - SE 5.8 mph - N/A   Clear
7:50 AM 30.2 °F 24.3 °F 28.4 °F 93% 29.89 in 6.2 mi SE 5.8 mph - N/A   Mostly Cloudy
8:50 AM 30 °F - 30 °F 100% 29.88 in 19 mi SSE 12.7 mph - -   Overcast
8:50 AM 30.2 °F 20.2 °F 30.2 °F 100% 29.86 in 6.2 mi SSE 12.7 mph - N/A   Mostly Cloudy
9:50 AM 30.2 °F 19.8 °F 26.6 °F 86% 29.83 in 6.2 mi SSE 13.8 mph - N/A   Overcast
10:50 AM 32.0 °F 23.0 °F 28.4 °F 87% 29.80 in 6.2 mi SSE 11.5 mph - N/A   Overcast
11:50 AM 35 °F - 35 °F 99% 29.76 in 12 mi SSE 17.3 mph - -   Partly Cloudy
11:50 AM 35.6 °F 25.5 °F 35.6 °F 100% 29.74 in 6.2 mi SSE 17.3 mph - N/A   Mostly Cloudy
12:50 PM 35.6 °F 27.5 °F 30.2 °F 81% 29.68 in 6.2 mi SSE 11.5 mph - N/A   Overcast
2:50 PM 38 °F - 33 °F 74% 29.61 in 11 mi South 19.6 mph - -   Unknown Precipitation
2:50 PM 37.4 °F 27.2 °F 32.0 °F 81% 29.59 in 6.2 mi South 19.6 mph - N/A   Scattered Clouds
3:50 PM 37.4 °F 26.9 °F 33.8 °F 87% 29.53 in 6.2 mi South 20.7 mph - N/A Rain Light Rain
4:50 PM 37.4 °F 26.9 °F 33.8 °F 87% 29.47 in 6.2 mi South 20.7 mph - N/A Rain Light Rain
5:50 PM 37 °F - 34 °F 84% 29.44 in 9 mi South 17.3 mph - - Rain Light Rain
5:50 PM 37.4 °F 27.8 °F 33.8 °F 87% 29.42 in 6.2 mi South 17.3 mph - N/A Rain Light Rain
6:50 PM 37.4 °F 27.2 °F 33.8 °F 87% 29.39 in 6.2 mi South 19.6 mph - N/A Rain Light Rain
7:50 PM 37.4 °F 28.2 °F 33.8 °F 87% 29.33 in 6.2 mi South 16.1 mph - N/A Rain Light Rain
8:50 PM 36 °F - 34 °F 87% 29.31 in 16 mi South 10.4 mph - - Rain Light Rain
8:50 PM 37.4 °F 30.3 °F 33.8 °F 87% 29.30 in 6.2 mi South 10.4 mph - N/A Rain Light Rain
9:50 PM 37.4 °F 29.8 °F 33.8 °F 87% 29.27 in 6.2 mi SSW 11.5 mph - N/A   Mostly Cloudy
10:50 PM 37.4 °F 32.1 °F 35.6 °F 93% 29.27 in 6.2 mi West 6.9 mph - N/A Rain Rain Showers
11:50 PM 37 °F - 35 °F 88% 29.28 in 16 mi West 5.8 mph - - Rain Rain
11:50 PM 37.4 °F 32.8 °F 35.6 °F 93% 29.27 in 6.2 mi West 5.8 mph - N/A   Mostly Cloudy